[[{"header":{"parameterUnit":"m.s-1","parameterCategory":1,"la1":30.2991,"la2":30.254,"lo1":-89.0895,"lo2":-89.0444,"dy":0.0017,"dx":0.0017,"nx":28,"ny":28,"refTime":"2025-02-24T09:00:00:Z","depth":0,"parameterNumber":2,"parameterNumberName":"U-component_of_WINDS"},"data":[0,0,0,0,0,0,0,0,0,0,0,0,0,0,0,0,0,0,0,0,0,0,0,0,0,0,0,0,0,0,0,0,0,0,0,0,0,0,0,0,0,0,0,0,0,0,0,0,0,0,0,0,0,0,0,0,0,0,2.2299,2.23,0,2.236,2.236,2.2361,2.2309,2.2307,2.2305,2.2303,2.2367,2.2371,2.2375,0,0,0,0,0,0,0,0,0,0,0,0,0,2.2141,2.2145,2.2299,2.23,2.23,2.236,2.236,2.2361,2.231,2.2307,2.2304,2.2302,2.2366,2.2371,2.2375,0,0,0,0,0,0,0,0,0,0,0,0,0,2.2207,2.2146,2.2299,2.2282,2.2281,2.2359,2.236,2.2361,2.231,2.2307,2.2304,2.2301,2.2365,2.237,2.2376,2.2475,0,0,2.2393,2.2395,0,0,0,0,0,0,0,0,2.2203,2.2213,2.2284,2.2283,2.2282,2.2324,2.2328,2.24,2.2311,2.2299,2.2303,2.2299,2.2356,2.2362,2.238,2.2478,2.2481,2.2393,2.2397,2.2399,2.2401,0,0,0,0,0,0,0,2.2199,2.221,2.2323,2.2285,2.2284,2.2272,2.2278,2.2342,2.2345,2.23,2.2296,2.2304,2.2355,2.2375,2.2381,2.2482,2.2393,2.2398,2.2401,2.2404,2.2666,2.2669,0,0,0,0,0,0,2.2196,2.2206,2.2321,2.2325,2.2234,2.2278,2.2284,2.2314,2.2344,2.2345,2.2307,2.2301,2.2367,2.2375,2.2383,2.2503,2.2399,2.2404,2.2407,2.2662,2.2667,2.267,0,0,0,0,0,0,2.2192,2.2206,2.2319,2.2265,2.2278,2.2284,2.2317,2.2317,2.2337,2.2349,2.235,2.2327,2.2365,2.2376,2.2453,2.2505,2.2407,2.2412,2.2658,2.2664,2.2669,2.2743,0,0,0,0,0,0,2.2188,2.2205,2.2242,2.2266,2.2281,2.2386,2.2321,2.232,2.2346,2.234,2.2368,2.237,2.2363,2.2445,2.2458,2.2511,2.2416,2.2653,2.266,2.2667,2.2736,2.275,2.2763,0,0,0,0,0,2.2183,2.2261,2.2245,2.2259,2.2327,2.2389,2.2398,2.2388,2.2351,2.2389,2.2397,2.2369,2.2496,2.2453,2.2468,2.2523,2.265,2.2658,2.2666,2.273,2.2748,2.2762,0,0,0,0,0,0,2.2244,2.2264,2.2246,2.2334,2.236,2.2381,2.2428,2.2407,2.2445,2.2438,2.2424,2.2431,2.2513,2.2525,2.2477,2.2621,2.2567,2.2579,2.2611,2.2628,2.2641,2.2637,2.2421,0,0,0,0,0,2.2268,2.2316,2.233,2.2407,2.2421,2.2423,2.2449,2.2439,2.2466,2.2478,2.2491,2.2519,2.2566,2.2597,2.264,2.2737,2.2744,2.2782,2.2795,2.2806,2.2817,2.2871,2.2889,2.2697,2.2697,2.2697,0,0,2.2318,2.2334,2.2365,2.242,2.2439,2.249,2.2432,2.2488,2.2527,2.2486,2.256,2.2572,2.2602,2.269,2.2729,2.2703,2.2871,2.2817,2.2825,2.283,2.2881,2.29,2.2916,2.2703,2.2702,2.2701,0,0,2.2435,2.2451,2.2518,2.2539,2.2568,2.2569,2.2585,2.2609,2.2615,2.2688,2.266,2.2705,2.2785,2.2809,2.2832,2.2959,2.2936,2.2973,2.3044,2.3097,2.3112,2.3125,2.3173,2.319,2.2983,2.2984,2.2984,0,2.2494,2.2569,2.2555,2.2614,2.264,2.2604,2.2673,2.2693,2.2736,2.2756,2.2725,2.2826,2.2843,2.2938,2.2969,2.2987,2.3007,2.2971,2.311,2.3124,2.3136,2.3182,2.3199,2.2988,2.2988,2.2987,2.2987,0,2.264,2.2693,2.2743,2.2785,2.2816,2.288,2.2877,2.291,2.2897,2.2902,2.2979,2.2999,2.3047,2.3068,2.3056,2.3161,2.3144,2.3112,2.3058,2.3159,2.3202,2.3219,2.2995,2.2993,2.2992,2.2991,0,0,2.2799,2.2833,2.2852,2.2872,2.2902,2.2943,2.3005,2.3052,2.3082,2.3112,2.3166,2.3234,2.3206,2.3231,2.3222,2.3268,2.3371,2.3231,2.3231,2.3258,2.349,2.3516,2.3536,2.3354,2.3358,2.336,2.3488,0,2.2919,2.3027,2.3017,2.312,2.317,2.3137,2.3192,2.3217,2.3223,2.3267,2.3273,2.3323,2.328,2.3295,2.3339,2.3349,2.3417,2.3339,2.3406,2.3409,2.3402,2.3558,2.3585,2.3705,2.3505,2.3507,2.3509,0,2.3074,2.3111,2.3219,2.3243,2.3264,2.3313,2.3355,2.3397,2.3426,2.3427,2.3456,2.3439,2.3503,2.3446,2.3536,2.3483,2.3509,2.3518,2.3522,2.353,2.3467,2.3572,2.3742,2.3762,2.3535,2.3533,2.3531,0,2.3182,2.3258,2.3333,2.335,2.338,2.3416,2.343,2.3456,2.3485,2.3522,2.3541,2.3585,2.361,2.3646,2.3642,2.36,2.3734,2.3676,2.3738,2.3739,2.377,2.3768,2.3949,2.3783,2.3783,2.3782,2.3782,0,2.3319,2.3387,2.3382,2.3429,2.3504,2.3492,2.3568,2.3578,2.3601,2.365,2.3624,2.367,2.3661,2.3708,2.3705,2.3781,2.3792,2.3796,2.3795,2.38,2.38,2.3819,2.3811,2.3787,2.3786,2.3785,2.3784,0,2.3454,2.3453,2.3533,2.3554,2.3561,2.3616,2.3636,2.368,2.3683,2.3746,2.376,2.3765,2.3819,2.3818,2.388,2.3878,2.3972,2.396,2.3963,2.3961,2.4024,2.4019,2.4226,2.4253,2.4067,2.4069,2.407,0,2.3542,2.3594,2.3621,2.3652,2.3668,2.3718,2.3747,2.3737,2.377,2.3807,2.3848,2.3899,2.394,2.4028,2.4038,2.4085,2.4076,2.4145,2.4083,2.4087,2.408,2.4078,2.4084,2.4158,2.416,2.4162,2.4163,0,2.37,2.3698,2.3741,2.3785,2.382,2.3854,2.3886,2.3912,2.3906,2.3944,2.3998,2.403,2.4093,2.4145,2.4191,2.4206,2.4185,2.4182,2.42,2.4206,2.4207,2.421,2.3998,2.4178,2.4177,2.4176,2.4175,2.4174,2.3816,2.3861,2.3888,2.3938,2.396,2.399,2.4033,2.4042,2.4087,2.4138,2.4129,2.4191,2.422,2.4279,2.4299,2.4348,2.4324,2.4348,2.4355,2.4362,2.437,2.4197,2.4356,2.4355,2.4355,2.4354,2.4354,0,2.3975,2.3991,2.4036,2.4081,2.412,2.4095,2.4128,2.4164,2.4218,2.4246,2.4287,2.4351,2.4402,2.4416,2.4465,2.4502,2.4494,2.4516,2.4514,2.4519,2.4388,2.4369,2.4522,2.4522,2.4522,2.4522,2.4522,2.4522,2.4063,2.4139,2.4139,2.4226,2.4241,2.4301,2.4323,2.4351,2.4374,2.4446,2.4488,2.4496,2.452,2.4571,2.4617,2.462,2.464,2.4667,2.4667,2.4544,2.4528,2.4512,2.4494,2.4671,2.4671,2.4794,2.4795,2.4796]},{"header":{"parameterUnit":"m.s-1","parameterCategory":1,"la1":30.2991,"la2":30.254,"lo1":-89.0895,"lo2":-89.0444,"dy":0.0017,"dx":0.0017,"nx":28,"ny":28,"refTime":"2025-02-24T09:00:00:Z","depth":0,"parameterNumber":3,"parameterNumberName":"V-component_of_WINDS"},"data":[0,0,0,0,0,0,0,0,0,0,0,0,0,0,0,0,0,0,0,0,0,0,0,0,0,0,0,0,0,0,0,0,0,0,0,0,0,0,0,0,0,0,0,0,0,0,0,0,0,0,0,0,0,0,0,0,0,0,-0.2115,-0.2115,0,-0.2131,-0.2131,-0.2132,-0.215,-0.2151,-0.2151,-0.2151,-0.2168,-0.2168,-0.2168,0,0,0,0,0,0,0,0,0,0,0,0,0,-0.2101,-0.2101,-0.2115,-0.2115,-0.2116,-0.2131,-0.2131,-0.2132,-0.215,-0.2151,-0.2151,-0.2151,-0.2168,-0.2168,-0.2168,0,0,0,0,0,0,0,0,0,0,0,0,0,-0.2111,-0.2101,-0.2115,-0.2127,-0.2128,-0.2131,-0.2131,-0.2132,-0.215,-0.2151,-0.2151,-0.2152,-0.2167,-0.2168,-0.2168,-0.2161,0,0,-0.2169,-0.2169,0,0,0,0,0,0,0,0,-0.211,-0.2111,-0.2125,-0.2126,-0.2127,-0.2139,-0.2132,-0.2142,-0.215,-0.2142,-0.2151,-0.2152,-0.2158,-0.2159,-0.2161,-0.2162,-0.2162,-0.2169,-0.2169,-0.2169,-0.2169,0,0,0,0,0,0,0,-0.211,-0.2111,-0.2122,-0.2125,-0.2127,-0.2131,-0.2133,-0.2134,-0.2147,-0.2143,-0.2144,-0.2146,-0.2159,-0.2161,-0.2161,-0.2163,-0.2169,-0.2169,-0.2169,-0.2169,-0.2159,-0.2158,0,0,0,0,0,0,-0.2107,-0.211,-0.2121,-0.2122,-0.212,-0.2131,-0.2133,-0.2135,-0.2147,-0.215,-0.2145,-0.2146,-0.216,-0.2161,-0.2162,-0.2155,-0.2169,-0.2169,-0.2169,-0.2159,-0.2159,-0.2158,0,0,0,0,0,0,-0.2107,-0.2108,-0.212,-0.2116,-0.2118,-0.2131,-0.2133,-0.2135,-0.2137,-0.2149,-0.2152,-0.2145,-0.216,-0.2162,-0.2161,-0.2156,-0.2169,-0.217,-0.216,-0.2159,-0.2159,-0.214,0,0,0,0,0,0,-0.2106,-0.2108,-0.2105,-0.2116,-0.2119,-0.2119,-0.2132,-0.2135,-0.2138,-0.2139,-0.215,-0.2152,-0.2161,-0.2161,-0.2161,-0.2156,-0.217,-0.216,-0.216,-0.2159,-0.2141,-0.2139,-0.2137,0,0,0,0,0,-0.2106,-0.2099,-0.2105,-0.2106,-0.2116,-0.2119,-0.212,-0.2131,-0.2137,-0.2135,-0.2142,-0.2151,-0.2156,-0.216,-0.2161,-0.2156,-0.2161,-0.216,-0.2159,-0.2142,-0.2139,-0.2137,0,0,0,0,0,0,-0.2087,-0.2101,-0.2107,-0.2104,-0.211,-0.2122,-0.2119,-0.2127,-0.2131,-0.2133,-0.2146,-0.2148,-0.2146,-0.2151,-0.2156,-0.215,-0.216,-0.2159,-0.2147,-0.2144,-0.2142,-0.2141,-0.217,0,0,0,0,0,-0.2082,-0.2084,-0.2096,-0.2092,-0.2095,-0.2106,-0.2108,-0.2116,-0.2122,-0.2125,-0.2133,-0.2139,-0.2142,-0.2143,-0.2147,-0.2142,-0.2145,-0.2139,-0.2137,-0.2135,-0.2134,-0.2133,-0.2131,-0.2155,-0.2155,-0.2155,0,0,-0.2073,-0.2081,-0.2081,-0.2088,-0.2094,-0.2095,-0.2108,-0.2109,-0.211,-0.2125,-0.2125,-0.2131,-0.2139,-0.2136,-0.2135,-0.2141,-0.2128,-0.2134,-0.2133,-0.2133,-0.2132,-0.2129,-0.2127,-0.2155,-0.2155,-0.2155,0,0,-0.2057,-0.2063,-0.206,-0.2065,-0.2074,-0.2082,-0.2081,-0.2092,-0.2096,-0.2096,-0.2108,-0.2109,-0.2114,-0.2119,-0.2122,-0.2108,-0.2117,-0.2109,-0.2098,-0.2096,-0.2094,-0.2092,-0.2087,-0.2086,-0.2108,-0.2108,-0.2108,0,-0.2044,-0.2046,-0.2058,-0.2058,-0.2061,-0.2075,-0.2072,-0.2077,-0.2086,-0.2088,-0.2093,-0.21,-0.2106,-0.2105,-0.2102,-0.2104,-0.2104,-0.2108,-0.2093,-0.2092,-0.209,-0.2086,-0.2084,-0.2107,-0.2107,-0.2107,-0.2107,0,-0.203,-0.2032,-0.2029,-0.2037,-0.204,-0.2038,-0.205,-0.2051,-0.2059,-0.2066,-0.2067,-0.2075,-0.208,-0.208,-0.2088,-0.208,-0.2083,-0.2091,-0.2101,-0.2087,-0.2083,-0.2081,-0.2106,-0.2106,-0.2106,-0.2107,0,0,-0.2002,-0.2017,-0.2016,-0.202,-0.203,-0.2031,-0.2031,-0.2036,-0.2037,-0.2043,-0.2043,-0.2047,-0.2054,-0.2058,-0.2066,-0.2065,-0.2053,-0.2072,-0.2073,-0.2069,-0.2046,-0.204,-0.2038,-0.2059,-0.2059,-0.2059,-0.2046,0,-0.1987,-0.1987,-0.1998,-0.1995,-0.1997,-0.201,-0.201,-0.2016,-0.2023,-0.2026,-0.2033,-0.2036,-0.2045,-0.2048,-0.2047,-0.2055,-0.2049,-0.2056,-0.2059,-0.2059,-0.2057,-0.2036,-0.203,-0.2017,-0.2044,-0.2044,-0.2044,0,-0.197,-0.1975,-0.1973,-0.1983,-0.1984,-0.1984,-0.199,-0.1992,-0.1999,-0.2005,-0.2009,-0.2018,-0.2019,-0.2028,-0.2029,-0.2034,-0.2036,-0.204,-0.204,-0.204,-0.2051,-0.2036,-0.2013,-0.2011,-0.2041,-0.2041,-0.2042,0,-0.195,-0.1956,-0.1955,-0.1958,-0.1971,-0.197,-0.1975,-0.1983,-0.1986,-0.1991,-0.1993,-0.1998,-0.2001,-0.2005,-0.2016,-0.2021,-0.2016,-0.2026,-0.202,-0.202,-0.2018,-0.2018,-0.1995,-0.2019,-0.202,-0.202,-0.202,0,-0.1933,-0.1931,-0.1946,-0.1946,-0.1944,-0.1956,-0.1954,-0.1961,-0.1968,-0.1969,-0.1981,-0.1982,-0.1996,-0.1998,-0.2007,-0.2006,-0.2007,-0.2012,-0.2014,-0.2011,-0.201,-0.2012,-0.2013,-0.2019,-0.2019,-0.2019,-0.2019,0,-0.191,-0.192,-0.192,-0.1932,-0.1935,-0.1933,-0.1944,-0.1944,-0.1951,-0.1953,-0.1954,-0.1966,-0.197,-0.1981,-0.1987,-0.1993,-0.199,-0.1994,-0.1987,-0.1989,-0.1983,-0.1983,-0.196,-0.1958,-0.1983,-0.1983,-0.1983,0,-0.1898,-0.1897,-0.1908,-0.191,-0.1915,-0.1917,-0.192,-0.1932,-0.1935,-0.1944,-0.1943,-0.1947,-0.1952,-0.1957,-0.1966,-0.1971,-0.1976,-0.1968,-0.1977,-0.1973,-0.1976,-0.1976,-0.1976,-0.1965,-0.1965,-0.1965,-0.1965,0,-0.1876,-0.1881,-0.1885,-0.189,-0.1893,-0.1898,-0.1904,-0.1904,-0.1918,-0.192,-0.1924,-0.1928,-0.1934,-0.1939,-0.1945,-0.1951,-0.196,-0.1962,-0.1961,-0.1957,-0.1953,-0.1956,-0.1982,-0.1962,-0.1962,-0.1963,-0.1963,-0.1963,-0.1858,-0.1858,-0.1866,-0.187,-0.1875,-0.188,-0.1881,-0.1889,-0.1892,-0.1899,-0.1906,-0.1909,-0.1917,-0.1927,-0.1932,-0.1935,-0.194,-0.1938,-0.1938,-0.1937,-0.1936,-0.1953,-0.1936,-0.1936,-0.1936,-0.1936,-0.1936,0,-0.1837,-0.1843,-0.1846,-0.1854,-0.1857,-0.1865,-0.1872,-0.1874,-0.1876,-0.1883,-0.1887,-0.1892,-0.1896,-0.1906,-0.1912,-0.1912,-0.1917,-0.1913,-0.1913,-0.1915,-0.1931,-0.1931,-0.191,-0.191,-0.191,-0.191,-0.191,-0.191,-0.1826,-0.1826,-0.1832,-0.1835,-0.1841,-0.1844,-0.1847,-0.1852,-0.1858,-0.1862,-0.1866,-0.1873,-0.1881,-0.1887,-0.1892,-0.1895,-0.1896,-0.1892,-0.1896,-0.1911,-0.1913,-0.1916,-0.1916,-0.1892,-0.1892,-0.1879,-0.1879,-0.1879]}]]